Skip Page Navigation
NASA JPL Caltech
NASA Logo - Jet Propulsion Laboratory + View the NASA Portal
+ Near-Earth Object (NEO) Program
Search JPL
JPL Home Earth Solar System Stars & Galaxies Technology
JPL Solar System Dynamics
BODIES ORBITS EPHEMERIDES TOOLS PHYSICAL DATA DISCOVERY FAQ SITE MAP
JPL Small-Body Database Browser
Search: [ help ]  
212547 (2006 SD20)
Classification: Main-belt Asteroid          SPK-ID: 2212547
Ephemeris | Orbit Diagram | Orbital Elements | Physical Parameters | Discovery Circumstances ]

[ hide orbit diagram ]
Orbit Diagram
Note: Make sure you have Java enabled on your browser to see the applet. This applet is provided as a 3D orbit visualization tool. The applet was implemented using 2-body methods, and hence should not be used for determining accurate long-term trajectories (over several years or decades) or planetary encounter circumstances. For accurate long-term ephemerides, please instead use our Horizons system.
Orbit Viewer

Additional Notes: the orbits shown in the applet are color coded. The planets are white lines, and the asteroid/comet is a blue line. The bright white line indicates the portion of the orbit that is above the ecliptic plane, and the darker portion is below the ecliptic plane. Likewise for the asteroid/comet orbit, the light blue indicates the portion above the ecliptic plane, and the dark blue the portion below the ecliptic plane.

Orbit Viewer applet originally written and kindly provided by Osamu Ajiki (AstroArts), and further modified by Ron Baalke (JPL).


Orbital Elements at Epoch 2456400.5 (2013-Apr-18.0) TDB
Reference: MPO248447 (heliocentric ecliptic J2000)
 Element Value Uncertainty (1-sigma)   Units 
e 0.0245058 n/a  
a 3.1960293 n/a AU
q 3.1177080 n/a AU
i 17.50116 n/a deg
node 21.14440 n/a deg
peri 358.53572 n/a deg
M 58.05702 n/a deg
tp 2456063.9366677
(2012-May-16.43666770)
n/a JED
period 2086.9620870
5.71
n/a
n/a
d
yr
n 0.17249954 n/a deg/d
Q 3.2743506 n/a AU
  Orbit Determination Parameters
   # obs. used (total)      79  
   first obs. used      2000-??-??  
   last obs. used      2012-12-13  
   # oppositions      6  
   planetary ephem.      DE403  
   condition code      0  
   fit RMS      0.43  
   data source      MPC:mpu  
   producer      MPCLINUX  

Additional Information
 T_jup = 3.123 

Ephemeris | Orbit Diagram | Orbital Elements | Physical Parameters | Discovery Circumstances ]

Physical Parameter Table
Parameter Symbol Value Units Sigma Reference Notes
absolute magnitude H 16.3 mag n/a MPO248447  

212547 (2006 SD20)          Discovered 2006-Sep-18 by Calvin College at Calvin-Rehoboth (G98)
Reference: 20090409/Numbers.arcLast Updated: 2009-04-10
Ephemeris | Orbit Diagram | Orbital Elements | Physical Parameters | Discovery Circumstances ]
ABOUT SSD CREDITS/AWARDS PRIVACY/COPYRIGHT GLOSSARY LINKS
FirstGov 2013-Jun-19 07:15 UT
(server date/time)  
NASA Home Page
Site Manager:   Donald K. Yeomans
Webmaster  Alan B. Chamberlin